Flag for Canada Weather past 2 weeks in Montreal, Quebec, Canada

Now
70 °F

Clear.


Feels Like: 70 °F
Forecast: 70 / 81 °F
Wind: 8 mph from Southwest

Location: Montreal - Pierre Elliot Trudeau International Aiport

Current Time: May 27, 2015 at 12:51:05 AM

Latest Report: May 27, 2015 at 12:00 AM


Visibility: 15 mi

Pressure: 30.00 "Hg

Humidity: 73%

Dew point: 61 °F

Location of MontrealLocation

Historic Weather in Montreal — Graph

°F

Montreal temperature yesterday

Maximum temperature yesterday: 82 °F (at 4:00 PM)
Minimum temperature yesterday: 61 °F (at 12:00 AM)
Average temperature yesterday: 72 °F

Past Weeks' High & Low Weather Summary

 TemperatureHumidityPressure
High82 °F (May 18, 3:00 PM)100% (May 11, 11:00 PM)30.40 "Hg (May 11, 11:00 PM)
Low37 °F (May 23, 4:00 AM)21% (May 15, 5:00 PM)29.58 "Hg (May 12, 4:00 PM)
Average60 °F57%30.01 "Hg
* Reported May 11 11:00 PM — May 26 11:00 PM, Montreal, Weather by CustomWeather, © 2015

Note: Actual official high and low records may vary slightly from our data, if they occured in-between our weather recording intervals... More about our weather records

Advertising

Montreal weather history for previous 24 hours

 ConditionsComfort  
Time TempWeatherWind HumidityBarometerVisibility
11:00 PM
Tue, May 26
72 °FClear.3 mph69%29.98 "Hg15 mi
10:00 PM73 °FPassing clouds.8 mph65%29.99 "Hg15 mi
9:00 PM75 °FPartly sunny.12 mph61%29.97 "Hg15 mi
8:00 PM79 °FPartly sunny.13 mph58%29.97 "Hg30 mi
7:00 PM82 °FPartly sunny.15 mph51%29.97 "Hg30 mi
6:00 PM82 °FPartly sunny.17 mph51%29.97 "Hg30 mi
5:00 PM82 °FPartly sunny.20 mph51%29.97 "Hg30 mi
4:00 PM82 °FBroken clouds.20 mph51%29.97 "Hg30 mi
3:00 PM81 °FPartly sunny.17 mph58%29.97 "Hg30 mi
2:00 PM81 °FPartly sunny.20 mph58%29.98 "Hg15 mi
1:00 PM81 °FBroken clouds.18 mph58%29.99 "Hg15 mi
12:00 PM77 °FPartly sunny.18 mph69%29.99 "Hg15 mi
11:00 AM75 °FBroken clouds.15 mph74%29.99 "Hg15 mi
10:00 AM73 °FPartly sunny.16 mph78%29.99 "Hg15 mi
9:00 AM72 °FBroken clouds.16 mph78%29.99 "Hg15 mi
8:00 AM68 °FBroken clouds.15 mph88%29.97 "Hg15 mi
7:00 AM68 °FBroken clouds.18 mph88%29.96 "Hg15 mi
6:49 AM66 °FPartly sunny.16 mph94%29.96 "Hg15 mi
6:00 AM66 °FPassing clouds.15 mph94%29.95 "Hg15 mi
5:00 AM63 °FPartly cloudy.12 mph100%29.92 "Hg10 mi
4:00 AM63 °FPassing clouds.9 mph100%29.90 "Hg10 mi
3:00 AM61 °FPassing clouds.No wind100%29.91 "Hg10 mi
2:00 AM63 °FPassing clouds.6 mph94%29.92 "Hg10 mi
1:00 AM63 °FRain. Fog.6 mph94%29.93 "Hg4 mi
12:00 AM61 °FFog.2 mph100%29.95 "Hg4 mi
Weather by CustomWeather, © 2015

See weather overviewHow to use our weather pages